Time,TemperatureF,DewpointF,PressureIn,WindDirection,WindDirectionDegrees,WindSpeedMPH,WindSpeedGustMPH,Humidity,HourlyPrecipIn,Conditions,Clouds,dailyrainin,SoftwareType,DateUTC
2013-06-04 00:06:00,66.7,-36.8,29.82,West,270,0.0,-999.0,1,-99.99,,,0.00,Acu-Link.com,2013-06-04 04:06:00,
2013-06-04 00:21:00,66.6,-36.9,29.82,WSW,247,0.0,-999.0,1,-99.99,,,0.00,Acu-Link.com,2013-06-04 04:21:00,
2013-06-04 00:37:00,66.4,-37.0,29.82,WSW,247,0.0,-999.0,1,-99.99,,,0.00,Acu-Link.com,2013-06-04 04:37:00,
2013-06-04 00:52:00,66.2,-37.1,29.82,West,270,0.0,-999.0,1,-99.99,,,0.00,Acu-Link.com,2013-06-04 04:52:00,
2013-06-04 01:07:00,66.0,-37.2,29.83,West,270,0.0,-999.0,1,-99.99,,,0.00,Acu-Link.com,2013-06-04 05:07:00,
2013-06-04 01:23:00,66.0,-37.2,29.83,West,270,0.0,-999.0,1,-99.99,,,0.00,Acu-Link.com,2013-06-04 05:23:00,
2013-06-04 01:38:00,66.0,-37.2,29.83,West,270,0.0,-999.0,1,-99.99,,,0.00,Acu-Link.com,2013-06-04 05:38:00,
2013-06-04 01:53:00,66.0,-37.2,29.83,West,270,0.0,-999.0,1,-99.99,,,0.00,Acu-Link.com,2013-06-04 05:53:00,
2013-06-04 02:09:00,65.8,-37.3,29.83,West,270,0.0,-999.0,1,-99.99,,,0.00,Acu-Link.com,2013-06-04 06:09:00,
2013-06-04 02:24:00,65.5,-37.5,29.83,ESE,112,0.0,-999.0,1,-99.99,,,0.00,Acu-Link.com,2013-06-04 06:24:00,
2013-06-04 02:39:00,65.3,-37.6,29.83,ESE,112,0.0,-999.0,1,-99.99,,,0.00,Acu-Link.com,2013-06-04 06:39:00,
2013-06-04 02:54:00,64.9,-37.9,29.82,ESE,112,0.0,-999.0,1,-99.99,,,0.00,Acu-Link.com,2013-06-04 06:54:00,
2013-06-04 03:09:00,64.8,-37.9,29.81,ESE,112,0.0,-999.0,1,-99.99,,,0.00,Acu-Link.com,2013-06-04 07:09:00,
2013-06-04 03:25:00,64.8,-37.9,29.81,SE,135,0.0,-999.0,1,-99.99,,,0.00,Acu-Link.com,2013-06-04 07:25:00,
2013-06-04 03:40:00,64.9,-37.9,29.82,West,270,0.0,-999.0,1,-99.99,,,0.00,Acu-Link.com,2013-06-04 07:40:00,
2013-06-04 03:55:00,65.3,-37.6,29.82,WSW,247,0.0,-999.0,1,-99.99,,,0.00,Acu-Link.com,2013-06-04 07:55:00,
2013-06-04 04:11:00,65.5,-37.5,29.82,SW,225,0.0,-999.0,1,-99.99,,,0.00,Acu-Link.com,2013-06-04 08:11:00,
2013-06-04 04:27:00,65.5,-37.5,29.81,ESE,112,0.0,-999.0,1,-99.99,,,0.00,Acu-Link.com,2013-06-04 08:27:00,
2013-06-04 04:42:00,65.5,-37.5,29.81,NE,45,0.0,-999.0,1,-99.99,,,0.00,Acu-Link.com,2013-06-04 08:42:00,
2013-06-04 04:57:00,65.5,-37.5,29.82,SE,135,0.0,-999.0,1,-99.99,,,0.00,Acu-Link.com,2013-06-04 08:57:00,
2013-06-04 05:12:00,65.5,-37.5,29.83,SSE,157,0.0,-999.0,1,-99.99,,,0.00,Acu-Link.com,2013-06-04 09:12:00,
2013-06-04 05:28:00,65.5,-37.5,29.83,SSW,202,0.0,-999.0,1,-99.99,,,0.00,Acu-Link.com,2013-06-04 09:28:00,
2013-06-04 05:43:00,65.7,-37.4,29.84,West,270,0.0,-999.0,1,-99.99,,,0.00,Acu-Link.com,2013-06-04 09:43:00,
2013-06-04 05:58:00,65.7,-37.4,29.85,ENE,67,0.0,-999.0,1,-99.99,,,0.00,Acu-Link.com,2013-06-04 09:58:00,
2013-06-04 06:14:00,65.5,-37.5,29.85,SSW,202,0.0,-999.0,1,-99.99,,,0.00,Acu-Link.com,2013-06-04 10:14:00,
2013-06-04 06:29:00,65.5,-37.5,29.86,NE,45,0.0,-999.0,1,-99.99,,,0.00,Acu-Link.com,2013-06-04 10:29:00,
2013-06-04 06:45:00,65.5,-37.5,29.87,East,90,0.0,-999.0,1,-99.99,,,0.00,Acu-Link.com,2013-06-04 10:45:00,
2013-06-04 07:00:00,65.8,-37.3,29.88,West,270,0.0,-999.0,1,-99.99,,,0.00,Acu-Link.com,2013-06-04 11:00:00,
2013-06-04 07:15:00,66.0,-37.2,29.88,ENE,67,1.7,-999.0,1,-99.99,,,0.00,Acu-Link.com,2013-06-04 11:15:00,
2013-06-04 07:30:00,66.2,-37.1,29.90,East,90,0.0,-999.0,1,-99.99,,,0.00,Acu-Link.com,2013-06-04 11:30:00,
2013-06-04 07:45:00,66.7,-36.8,29.90,ENE,67,0.0,-999.0,1,-99.99,,,0.00,Acu-Link.com,2013-06-04 11:45:00,
2013-06-04 08:16:00,67.6,-36.3,29.90,East,90,0.0,-999.0,1,-99.99,,,0.01,Acu-Link.com,2013-06-04 12:16:00,
2013-06-04 08:31:00,67.8,-36.1,29.91,East,90,1.1,-999.0,1,-99.99,,,0.01,Acu-Link.com,2013-06-04 12:31:00,
2013-06-04 08:47:00,68.0,-36.0,29.91,NE,45,1.1,-999.0,1,-99.99,,,0.01,Acu-Link.com,2013-06-04 12:47:00,
2013-06-04 09:02:00,68.2,-35.9,29.92,ENE,67,1.1,-999.0,1,-99.99,,,0.01,Acu-Link.com,2013-06-04 13:02:00,
2013-06-04 09:17:00,69.1,-35.4,29.92,ESE,112,1.1,-999.0,1,-99.99,,,0.01,Acu-Link.com,2013-06-04 13:17:00,
2013-06-04 09:32:00,69.1,-35.4,29.93,ESE,112,0.0,-999.0,1,-99.99,,,0.01,Acu-Link.com,2013-06-04 13:32:00,
2013-06-04 09:48:00,69.3,-35.2,29.93,NNE,22,1.1,-999.0,1,-99.99,,,0.01,Acu-Link.com,2013-06-04 13:48:00,
2013-06-04 10:03:00,69.4,-35.2,29.94,ESE,112,1.7,-999.0,1,-99.99,,,0.01,Acu-Link.com,2013-06-04 14:03:00,
2013-06-04 10:18:00,69.3,-35.2,29.95,NNE,22,0.0,-999.0,1,-99.99,,,0.01,Acu-Link.com,2013-06-04 14:18:00,
2013-06-04 10:33:00,70.0,-34.8,29.95,ENE,67,0.0,-999.0,1,-99.99,,,0.01,Acu-Link.com,2013-06-04 14:33:00,
2013-06-04 10:49:00,70.0,-34.8,29.96,NW,315,0.0,-999.0,1,-99.99,,,0.01,Acu-Link.com,2013-06-04 14:49:00,
2013-06-04 11:04:00,70.2,-34.7,29.96,NNE,22,0.0,-999.0,1,-99.99,,,0.01,Acu-Link.com,2013-06-04 15:04:00,
2013-06-04 11:19:00,70.2,-34.7,29.96,West,270,0.0,-999.0,1,-99.99,,,0.01,Acu-Link.com,2013-06-04 15:19:00,
2013-06-04 11:35:00,70.2,-34.7,29.97,North,0,0.0,-999.0,1,-99.99,,,0.01,Acu-Link.com,2013-06-04 15:35:00,
2013-06-04 11:50:00,70.7,-34.4,29.97,East,90,0.0,-999.0,1,-99.99,,,0.01,Acu-Link.com,2013-06-04 15:50:00,
2013-06-04 12:05:00,71.2,-34.1,29.97,NE,45,0.0,-999.0,1,-99.99,,,0.01,Acu-Link.com,2013-06-04 16:05:00,
2013-06-04 12:21:00,71.2,-34.1,29.97,ESE,112,1.7,-999.0,1,-99.99,,,0.01,Acu-Link.com,2013-06-04 16:21:00,
2013-06-04 12:36:00,71.4,44.5,29.97,North,0,0.0,-999.0,38,-99.99,,,0.01,Acu-Link.com,2013-06-04 16:36:00,
2013-06-04 13:06:00,71.8,49.3,29.97,ENE,67,0.0,-999.0,45,-99.99,,,0.01,Acu-Link.com,2013-06-04 17:06:00,
2013-06-04 13:21:00,73.0,44.5,29.96,SE,135,0.0,-999.0,36,-99.99,,,0.01,Acu-Link.com,2013-06-04 17:21:00,
2013-06-04 13:37:00,74.1,50.8,29.95,NW,315,0.0,-999.0,44,-99.99,,,0.01,Acu-Link.com,2013-06-04 17:37:00,
2013-06-04 13:52:00,73.4,55.2,29.95,ESE,112,0.0,-999.0,53,-99.99,,,0.01,Acu-Link.com,2013-06-04 17:52:00,
2013-06-04 14:07:00,75.6,58.8,29.95,ESE,112,0.0,-999.0,56,-99.99,,,0.01,Acu-Link.com,2013-06-04 18:07:00,
2013-06-04 14:22:00,77.5,62.5,29.95,NE,45,0.0,-999.0,60,-99.99,,,0.01,Acu-Link.com,2013-06-04 18:22:00,
2013-06-04 14:38:00,77.0,65.6,29.95,East,90,1.1,-999.0,68,-99.99,,,0.01,Acu-Link.com,2013-06-04 18:38:00,
2013-06-04 14:53:00,75.7,65.6,29.95,South,180,0.0,-999.0,71,-99.99,,,0.01,Acu-Link.com,2013-06-04 18:53:00,
2013-06-04 15:09:00,76.1,64.8,29.94,North,0,1.7,-999.0,68,-99.99,,,0.01,Acu-Link.com,2013-06-04 19:09:00,
2013-06-04 15:24:00,77.4,65.6,29.94,SE,135,0.0,-999.0,67,-99.99,,,0.01,Acu-Link.com,2013-06-04 19:24:00,
2013-06-04 15:39:00,76.6,66.5,29.94,West,270,1.7,-999.0,71,-99.99,,,0.01,Acu-Link.com,2013-06-04 19:39:00,
2013-06-04 15:54:00,76.6,64.8,29.94,NNE,22,1.7,-999.0,67,-99.99,,,0.01,Acu-Link.com,2013-06-04 19:54:00,
2013-06-04 16:10:00,77.4,66.0,29.93,NW,315,1.7,-999.0,68,-99.99,,,0.01,Acu-Link.com,2013-06-04 20:10:00,
2013-06-04 16:25:00,80.2,67.3,29.93,NW,315,0.0,-999.0,65,-99.99,,,0.01,Acu-Link.com,2013-06-04 20:25:00,
2013-06-04 16:40:00,79.9,66.6,29.93,ENE,67,1.1,-999.0,64,-99.99,,,0.01,Acu-Link.com,2013-06-04 20:40:00,
2013-06-04 16:56:00,80.4,67.5,29.93,WNW,292,0.0,-999.0,65,-99.99,,,0.01,Acu-Link.com,2013-06-04 20:56:00,
2013-06-04 17:26:00,80.1,69.8,29.94,ESE,112,0.0,-999.0,71,-99.99,,,0.01,Acu-Link.com,2013-06-04 21:26:00,
2013-06-04 17:42:00,78.4,70.2,29.92,WNW,292,0.0,-999.0,76,-99.99,,,0.01,Acu-Link.com,2013-06-04 21:42:00,
2013-06-04 17:57:00,79.7,70.7,29.92,WNW,292,0.0,-999.0,74,-99.99,,,0.01,Acu-Link.com,2013-06-04 21:57:00,
2013-06-04 18:12:00,82.0,69.9,29.93,ENE,67,0.0,-999.0,67,-99.99,,,0.01,Acu-Link.com,2013-06-04 22:12:00,
2013-06-04 18:27:00,82.0,69.5,29.91,West,270,0.0,-999.0,66,-99.99,,,0.01,Acu-Link.com,2013-06-04 22:27:00,
2013-06-04 18:43:00,82.8,69.4,29.92,NE,45,1.1,-999.0,64,-99.99,,,0.01,Acu-Link.com,2013-06-04 22:43:00,
2013-06-04 18:58:00,81.9,69.8,29.92,ESE,112,0.0,-999.0,67,-99.99,,,0.01,Acu-Link.com,2013-06-04 22:58:00,
2013-06-04 19:13:00,79.5,69.7,29.91,ESE,112,0.0,-999.0,72,-99.99,,,0.01,Acu-Link.com,2013-06-04 23:13:00,
2013-06-04 19:29:00,77.9,70.1,29.92,ESE,112,0.0,-999.0,77,-99.99,,,0.01,Acu-Link.com,2013-06-04 23:29:00,
2013-06-04 19:44:00,76.3,70.4,29.92,SSE,157,0.0,-999.0,82,-99.99,,,0.01,Acu-Link.com,2013-06-04 23:44:00,
2013-06-04 19:59:00,75.0,69.8,29.93,SSE,157,0.0,-999.0,84,-99.99,,,0.01,Acu-Link.com,2013-06-04 23:59:00,
2013-06-04 20:15:00,73.6,68.5,29.93,SSE,157,0.0,-999.0,84,-99.99,,,0.01,Acu-Link.com,2013-06-05 00:15:00,
2013-06-04 20:30:00,72.3,65.0,29.94,SSE,157,0.0,-999.0,78,-99.99,,,0.01,Acu-Link.com,2013-06-05 00:30:00,
2013-06-04 20:45:00,71.6,59.6,29.95,SSE,157,0.0,-999.0,66,-99.99,,,0.01,Acu-Link.com,2013-06-05 00:45:00,
2013-06-04 21:00:00,71.4,53.9,29.96,SSE,157,0.0,-999.0,54,-99.99,,,0.01,Acu-Link.com,2013-06-05 01:00:00,
2013-06-04 21:16:00,71.1,46.2,29.96,SSE,157,0.0,-999.0,41,-99.99,,,0.01,Acu-Link.com,2013-06-05 01:16:00,
2013-06-04 21:31:00,70.7,36.0,29.96,SSE,157,0.0,-999.0,28,-99.99,,,0.01,Acu-Link.com,2013-06-05 01:31:00,
2013-06-04 21:46:00,70.0,-34.8,29.96,ESE,112,0.0,-999.0,1,-99.99,,,0.01,Acu-Link.com,2013-06-05 01:46:00,
2013-06-04 22:02:00,69.3,-35.2,29.97,ESE,112,0.0,-999.0,1,-99.99,,,0.01,Acu-Link.com,2013-06-05 02:02:00,
2013-06-04 22:17:00,68.4,-35.8,29.97,ESE,112,0.0,-999.0,1,-99.99,,,0.01,Acu-Link.com,2013-06-05 02:17:00,
2013-06-04 22:32:00,68.0,-36.0,29.97,ESE,112,0.0,-999.0,1,-99.99,,,0.01,Acu-Link.com,2013-06-05 02:32:00,
2013-06-04 22:48:00,67.3,-36.4,29.98,ESE,112,0.0,-999.0,1,-99.99,,,0.01,Acu-Link.com,2013-06-05 02:48:00,
2013-06-04 23:03:00,66.9,-36.7,29.98,ESE,112,0.0,-999.0,1,-99.99,,,0.01,Acu-Link.com,2013-06-05 03:03:00,
2013-06-04 23:18:00,66.4,-37.0,29.98,ESE,112,0.0,-999.0,1,-99.99,,,0.01,Acu-Link.com,2013-06-05 03:18:00,
2013-06-04 23:33:00,66.2,-37.1,29.98,ESE,112,0.0,-999.0,1,-99.99,,,0.01,Acu-Link.com,2013-06-05 03:33:00,
2013-06-04 23:48:00,65.8,-37.3,29.98,ESE,112,0.0,-999.0,1,-99.99,,,0.01,Acu-Link.com,2013-06-05 03:48:00,